Mackinac Island, MI

10:22 AM EDT on September 26, 2016 (GMT -0400)
Mackinac Island

Weather History for KMCD - June, 2013

Change the Weather History Date:

Friday, June 21, 2013

  Actual Average Record
Temperature  
Mean Temperature 61 °F -  
Max Temperature 65 °F 67 °F 85 °F (1975)
Min Temperature 57 °F 52 °F 38 °F (1992)
Degree Days  
Heating Degree Days 4    
Growing Degree Days 11 (Base 50)    
Moisture  
Dew Point 55 °F    
Average Humidity 83    
Maximum Humidity 94    
Minimum Humidity 64    
Precipitation  
Precipitation 0.09 in - - ()
Sea Level Pressure  
Sea Level Pressure 30.07 in    
Wind  
Wind Speed 7 mph (East)    
Max Wind Speed 18 mph    
Max Gust Speed 30 mph    
Visibility 9 miles    
Events Rain    
Averages and records for this station are not official NWS values.
T = Trace of Precipitation, MM = Missing Value Source: NWS Daily Summary

Daily Weather History Graph

Daily Weather History Graph

Search for Another Location

Airport or City:

Trip Planner

Search our weather history database for the weather conditions in past years. The results will help you decide how hot, cold, wet, or windy it might be!

Date:

Astronomy

Jun. 21, 2013 Rise Set
Actual Time 5:48 AM EDT 9:32 PM EDT
Civil Twilight 5:09 AM EDT 10:10 PM EDT
Nautical Twilight 4:18 AM EDT 11:02 PM EDT
Astronomical Twilight 3:06 AM EDT 12:14 AM EDT
Moon 7:38 PM EDT (6/21) 4:08 AM EDT (6/21)
Length of Visible Light 17h 01m
Length of Day
15h 44m
Waxing Gibbous, 95% of the Moon is Illuminated
Jun 21
Waxing Gibbous
Jun 23
Full
Jun 30
Last Quarter
Jul 8
New
Jul 15
First Quarter

Hourly Weather History & Observations

Time (EDT) Temp. Dew Point Humidity Pressure Visibility Wind Dir Wind Speed Gust Speed Precip Events Conditions
12:13 AM 58.6 °F 52.9 °F 81% 30.16 in 10.0 mi ESE 4.6 mph - N/A   Scattered Clouds
12:34 AM 58.6 °F 52.7 °F 81% 30.16 in 10.0 mi Calm Calm - N/A   Clear
12:54 AM 58.1 °F 52.7 °F 82% 30.17 in 10.0 mi Calm Calm - N/A   Mostly Cloudy
1:13 AM 57.7 °F 52.5 °F 83% 30.16 in 10.0 mi Calm Calm - N/A   Overcast
1:34 AM 57.6 °F 52.7 °F 84% 30.16 in 10.0 mi ESE 4.6 mph - N/A   Scattered Clouds
1:54 AM 58.1 °F 52.9 °F 83% 30.16 in 10.0 mi Calm Calm - N/A   Clear
2:13 AM 58.5 °F 53.1 °F 82% 30.17 in 10.0 mi Calm Calm - N/A   Mostly Cloudy
2:34 AM 58.3 °F 54.1 °F 86% 30.17 in 10.0 mi ENE 6.9 mph - N/A   Scattered Clouds
2:54 AM 59.0 °F 54.1 °F 84% 30.16 in 10.0 mi NE 6.9 mph - N/A   Clear
3:13 AM 59.0 °F 54.5 °F 85% 30.15 in 10.0 mi NE 9.2 mph - N/A   Clear
3:34 AM 59.9 °F 53.2 °F 79% 30.15 in 10.0 mi ENE 8.1 mph - N/A   Clear
3:54 AM 60.3 °F 53.2 °F 78% 30.15 in 10.0 mi ENE 6.9 mph - N/A   Clear
4:13 AM 61.2 °F 52.2 °F 72% 30.14 in 10.0 mi ENE 6.9 mph - N/A   Scattered Clouds
4:34 AM 61.5 °F 52.0 °F 71% 30.13 in 10.0 mi East 4.6 mph - N/A   Mostly Cloudy
4:53 AM 61.7 °F 52.0 °F 70% 30.13 in 10.0 mi East 5.8 mph - N/A   Mostly Cloudy
5:13 AM 61.0 °F 52.7 °F 74% 30.13 in 10.0 mi East 6.9 mph - N/A   Overcast
5:34 AM 61.3 °F 52.7 °F 73% 30.13 in 10.0 mi ESE 10.4 mph - N/A   Mostly Cloudy
5:53 AM 61.7 °F 53.2 °F 74% 30.13 in 10.0 mi ESE 10.4 mph - N/A   Scattered Clouds
6:14 AM 61.7 °F 53.8 °F 75% 30.14 in 10.0 mi ESE 9.2 mph - N/A   Mostly Cloudy
6:34 AM 60.8 °F 52.9 °F 75% 30.14 in 10.0 mi East 12.7 mph - N/A   Overcast
6:53 AM 61.2 °F 52.2 °F 72% 30.14 in 10.0 mi ESE 11.5 mph 17.3 mph N/A   Overcast
7:14 AM 62.4 °F 51.6 °F 68% 30.14 in 10.0 mi East 11.5 mph 18.4 mph N/A   Scattered Clouds
7:34 AM 62.6 °F 51.8 °F 68% 30.14 in 1.8 mi ESE 9.2 mph 16.1 mph N/A   Haze
7:54 AM 62.8 °F 51.8 °F 67% 30.14 in 7.0 mi ESE 9.2 mph - N/A   Overcast
8:14 AM 63.7 °F 52.7 °F 67% 30.14 in 10.0 mi SE 8.1 mph - N/A   Overcast
8:33 AM 65.3 °F 52.7 °F 64% 30.13 in 10.0 mi ESE 6.9 mph - N/A   Overcast
8:54 AM 64.8 °F 53.6 °F 67% 30.13 in 10.0 mi ESE 4.6 mph - N/A   Overcast
9:14 AM 61.7 °F 54.0 °F 76% 30.12 in 10.0 mi East 6.9 mph - N/A   Overcast
9:33 AM 60.8 °F 54.7 °F 80% 30.13 in 10.0 mi East 9.2 mph - N/A   Overcast
9:54 AM 61.3 °F 54.5 °F 78% 30.12 in 10.0 mi East 9.2 mph - N/A   Overcast
10:14 AM 61.7 °F 55.4 °F 80% 30.13 in 10.0 mi ESE 8.1 mph - N/A   Overcast
10:33 AM 61.0 °F 55.4 °F 82% 30.12 in 10.0 mi ESE 6.9 mph - N/A   Overcast
10:54 AM 60.6 °F 55.6 °F 83% 30.11 in 10.0 mi East 9.2 mph - N/A   Overcast
11:14 AM 60.8 °F 55.4 °F 82% 30.11 in 10.0 mi East 9.2 mph - N/A   Overcast
11:33 AM 59.9 °F 54.7 °F 83% 30.11 in 10.0 mi East 11.5 mph - N/A   Overcast
11:54 AM 59.2 °F 54.5 °F 84% 30.11 in 10.0 mi East 10.4 mph 16.1 mph N/A   Overcast
12:14 PM 59.2 °F 54.5 °F 84% 30.10 in 10.0 mi East 11.5 mph 19.6 mph N/A   Overcast
12:33 PM 58.6 °F 54.5 °F 86% 30.10 in 10.0 mi East 8.1 mph 17.3 mph N/A   Overcast
12:54 PM 58.1 °F 54.9 °F 89% 30.09 in 5.0 mi East 11.5 mph 19.6 mph N/A Rain Light Rain
1:14 PM 57.9 °F 55.2 °F 91% 30.08 in 10.0 mi East 11.5 mph 19.6 mph N/A   Overcast
1:33 PM 59.0 °F 55.2 °F 87% 30.08 in 10.0 mi East 10.4 mph 17.3 mph N/A   Mostly Cloudy
1:54 PM 59.2 °F 55.4 °F 87% 30.07 in 10.0 mi East 12.7 mph 19.6 mph N/A   Overcast
2:14 PM 60.3 °F 55.8 °F 85% 30.05 in 10.0 mi East 11.5 mph 18.4 mph N/A   Overcast
2:33 PM 60.6 °F 55.4 °F 83% 30.05 in 10.0 mi East 11.5 mph 18.4 mph N/A   Mostly Cloudy
2:54 PM 60.1 °F 55.2 °F 84% 30.05 in 10.0 mi East 11.5 mph 21.9 mph N/A   Scattered Clouds
3:14 PM 59.5 °F 55.4 °F 86% 30.04 in 10.0 mi East 16.1 mph 25.3 mph N/A   Scattered Clouds
3:33 PM 59.4 °F 55.9 °F 88% 30.04 in 7.0 mi East 12.7 mph 20.7 mph N/A   Mostly Cloudy
3:54 PM 59.7 °F 56.3 °F 88% 30.03 in 5.0 mi East 11.5 mph 20.7 mph N/A Rain Rain
4:14 PM 59.5 °F 56.3 °F 89% 30.03 in 5.0 mi East 11.5 mph 23.0 mph N/A Rain Light Rain
4:33 PM 59.5 °F 56.3 °F 89% 30.02 in 5.0 mi East 15.0 mph 26.5 mph 0.01 in Rain Light Rain
4:54 PM 59.2 °F 55.9 °F 89% 30.00 in 5.0 mi East 18.4 mph 26.5 mph 0.01 in   Overcast
5:14 PM 59.4 °F 55.6 °F 87% 29.99 in 7.0 mi East 16.1 mph 25.3 mph N/A   Overcast
5:33 PM 59.7 °F 55.6 °F 86% 29.98 in 7.0 mi East 15.0 mph 24.2 mph N/A   Overcast
5:54 PM 59.5 °F 55.6 °F 87% 29.97 in 7.0 mi East 18.4 mph 29.9 mph N/A   Overcast
6:14 PM 59.2 °F 55.4 °F 87% 29.96 in 10.0 mi East 15.0 mph 26.5 mph N/A   Overcast
6:33 PM 59.2 °F 55.0 °F 86% 29.95 in 10.0 mi East 16.1 mph 23.0 mph N/A   Mostly Cloudy
6:54 PM 59.2 °F 55.0 °F 86% 29.94 in 10.0 mi East 16.1 mph 23.0 mph N/A   Overcast
7:14 PM 59.2 °F 55.6 °F 88% 29.93 in 5.0 mi East 11.5 mph 19.6 mph 0.02 in Rain Rain
7:33 PM 60.1 °F 57.2 °F 90% 29.93 in 7.0 mi East 8.1 mph - 0.05 in Rain Light Rain
7:54 PM 61.0 °F 58.8 °F 93% 29.94 in 2.5 mi West 4.6 mph - 0.05 in   Overcast
8:13 PM 61.7 °F 59.5 °F 93% 29.96 in 5.0 mi WSW 4.6 mph - N/A Rain Light Rain
8:33 PM 60.8 °F 59.0 °F 94% 29.95 in 1.2 mi Calm Calm - 0.01 in   Overcast
8:54 PM 60.1 °F 58.1 °F 93% 29.97 in 3.0 mi West 5.8 mph - 0.01 in   Overcast
9:13 PM 62.8 °F 60.3 °F 91% 29.96 in 5.0 mi WNW 6.9 mph - N/A   Overcast
9:33 PM 62.1 °F 59.5 °F 91% 29.97 in 7.0 mi NW 4.6 mph - N/A   Overcast
9:54 PM 62.2 °F 60.3 °F 93% 29.97 in 5.0 mi WNW 6.9 mph - N/A   Overcast
10:13 PM 63.5 °F 60.8 °F 91% 29.97 in 10.0 mi West 6.9 mph - N/A   Mostly Cloudy
10:34 PM 63.7 °F 60.1 °F 88% 29.97 in 10.0 mi WSW 13.8 mph 19.6 mph N/A   Overcast
10:54 PM 64.2 °F 59.7 °F 85% 29.98 in 10.0 mi West 15.0 mph 23.0 mph N/A   Overcast
11:13 PM 62.8 °F 59.7 °F 90% 29.98 in 7.0 mi West 18.4 mph 24.2 mph N/A Rain Rain
11:34 PM 62.1 °F 59.9 °F 93% 29.98 in 7.0 mi WSW 9.2 mph 19.6 mph 0.02 in Rain Rain
11:54 PM 61.2 °F 59.0 °F 93% 29.97 in 10.0 mi WSW 8.1 mph 16.1 mph 0.02 in   Overcast